Waarnemingen

Advertentie
Mijn weer
Maastricht, Nederland (6380): temperatuur & dauwpunt: 15.02.2019 15:00:00 - 21.02.2019 15:00:00 (CET)Maastricht, Nederland (6380): temperatuur 5cm: 15.02.2019 15:00:00 - 21.02.2019 15:00:00 (CET)Maastricht, Nederland (6380): windsnelheid & windstoten: 15.02.2019 15:00:00 - 21.02.2019 15:00:00 (CET)Maastricht, Nederland (6380): windrichting: 15.02.2019 15:00:00 - 21.02.2019 15:00:00 (CET)Maastricht, Nederland (6380): luchtdruk: 15.02.2019 15:00:00 - 21.02.2019 15:00:00 (CET)Maastricht, Nederland (6380): zicht: 15.02.2019 15:00:00 - 21.02.2019 15:00:00 (CET)Maastricht, Nederland (6380): neerslag: 15.02.2019 15:00:00 - 21.02.2019 15:00:00 (CET)
Datum & Tijd tt [°C] td [°C] tt 5cm [°C] ff [km/u] ff [kn] fx [km/u] fx [kn] dd ppp [hPa] vv [km] rr [mm]
21.02.2019 15:00:00 12,4 6,3 12,6 15 8 29 16 WZW 1027,7 10 0,0
21.02.2019 14:00:00 12,5 6,5 12,3 16 9 29 16 WZW 1027,6 10 0,0
21.02.2019 13:00:00 11,9 6,9 12,9 18 10 29 16 ZW 1027,8 10 0,0
21.02.2019 12:00:00 10,2 6,4 10,1 16 9 29 16 WZW 1028,2 10 0,0
21.02.2019 11:00:00 10,1 6,3 10,3 13 7 25 14 W 1028,1 10 0,0
21.02.2019 10:00:00 8,7 5,5 9,2 18 10 18 10 ZZW 1027,2 10 0,0
21.02.2019 09:00:00 7,1 4,5 6,5 13 7 18 10 ZZW 1026,9 10 0,0
21.02.2019 08:00:00 6,3 4,2 5,1 13 7 18 10 ZZW 1026,5 10 0,0
21.02.2019 07:00:00 5,9 3,5 5,1 15 8 22 12 Z 1025,9 10 0,0
21.02.2019 06:00:00 6,0 3,8 4,7 13 7 18 10 Z 1025,9 9 0,0
21.02.2019 05:00:00 6,1 3,9 5,3 11 6 18 10 ZZW 1026,1 10 0,0
21.02.2019 04:00:00 5,5 3,8 3,9 13 7 14 8 ZZW 1026,2 10 0,0
21.02.2019 03:00:00 4,6 2,7 2,4 13 7 14 8 ZZW 1026,1 10 0,0
21.02.2019 02:00:00 5,9 3,2 5,3 15 8 18 10 ZZW 1025,6 10 0,0
21.02.2019 01:00:00 7,1 3,7 6,6 15 8 18 10 ZZW 1025,5 10 0,0
21.02.2019 00:00:00 6,6 3,6 6,2 11 6 18 10 ZZW 1025,2 10 0,0
20.02.2019 23:00:00 6,1 3,4 5,3 11 6 14 8 Z 1025,4 15 0,0
20.02.2019 22:00:00 5,2 2,6 3,0 11 6 14 8 ZZW 1025,2 16 0,0
20.02.2019 21:00:00 5,8 2,6 2,9 7 4 14 8 ZZW 1025,1 17 0,0
20.02.2019 20:00:00 7,4 3,1 5,5 11 6 18 10 ZW 1024,7 24 0,0
20.02.2019 19:00:00 8,6 3,2 6,5 11 6 18 10 ZW 1024,5 28 0,0
20.02.2019 18:00:00 10,1 2,9 9,1 11 6 25 14 WZW 1024,0 32 0,0
20.02.2019 17:00:00 10,7 3,6 10,3 18 10 32 18 ZW 1023,7 32 0,0
20.02.2019 16:00:00 11,0 3,8 11,4 18 10 - - ZW 1023,6 26 0,0
20.02.2019 15:00:00 11,2 4,6 11,0 14 8 29 16 WZW 1023,6 28 0,0
20.02.2019 14:00:00 10,5 5,1 11,4 21 11 32 18 WZW 1023,9 10 0,0
20.02.2019 13:00:00 9,6 4,8 10,0 24 13 36 19 ZW 1023,9 10 0,0
20.02.2019 12:00:00 9,7 4,8 9,6 24 13 36 19 ZW 1023,9 10 0,0
20.02.2019 11:00:00 9,5 4,5 9,4 22 12 25 14 ZW 1023,8 10 0,0
20.02.2019 10:00:00 6,8 3,8 6,5 22 12 25 14 ZZW 1023,5 10 0,0
20.02.2019 09:00:00 5,0 3,0 4,8 22 12 25 14 ZZW 1023,1 9 0,0
20.02.2019 08:00:00 3,8 2,0 3,1 16 9 18 10 ZZW 1022,5 10 0,0
20.02.2019 07:00:00 3,9 1,8 3,3 16 9 18 10 ZZW 1022,0 10 0,0
20.02.2019 06:00:00 4,0 1,7 3,6 16 9 18 10 ZZW 1022,1 10 0,0
20.02.2019 05:00:00 3,6 1,4 3,1 13 7 18 10 ZZW 1022,0 10 0,0
20.02.2019 04:00:00 3,8 1,5 3,2 16 9 18 10 ZZW 1021,7 10 0,0
20.02.2019 03:00:00 3,7 1,4 2,9 13 7 18 10 ZZW 1022,0 10 0,0
20.02.2019 02:00:00 3,4 1,1 2,1 11 6 14 8 ZZW 1022,3 10 0,0
20.02.2019 01:00:00 3,2 0,9 2,0 11 6 14 8 ZZW 1022,2 10 0,0
20.02.2019 00:00:00 4,3 1,6 2,4 11 6 14 8 ZZW 1022,0 10 0,0
19.02.2019 23:00:00 4,4 1,5 2,9 13 7 18 10 ZZW 1021,9 10 0,0
19.02.2019 22:00:00 6,2 2,2 5,1 13 7 18 10 ZW 1021,8 10 0,0
19.02.2019 21:00:00 6,5 2,2 5,4 13 7 18 10 ZW 1021,7 10 0,0
19.02.2019 20:00:00 7,2 2,7 6,0 15 8 18 10 ZW 1021,5 10 0,0
19.02.2019 19:00:00 7,2 2,4 5,7 15 8 18 10 ZW 1021,2 10 0,0
19.02.2019 18:00:00 8,1 2,5 6,7 11 6 18 10 WZW 1020,9 10 0,0
19.02.2019 17:00:00 9,4 1,9 8,7 15 8 32 18 WZW 1020,8 10 0,0
19.02.2019 16:00:00 9,9 2,2 9,9 21 11 32 18 WZW 1020,7 10 0,0
19.02.2019 15:00:00 10,5 2,5 11,7 18 10 36 19 WZW 1020,5 10 0,0
19.02.2019 14:00:00 10,8 3,4 10,4 18 10 32 18 WZW 1020,3 10 0,0
19.02.2019 13:00:00 9,8 4,1 9,4 21 11 36 19 WZW 1020,5 10 0,0
19.02.2019 12:00:00 9,1 3,4 8,7 22 12 32 18 WZW 1020,6 10 0,0
19.02.2019 11:00:00 8,4 4,0 9,2 24 13 36 19 ZW 1020,4 10 0,0
19.02.2019 10:00:00 7,8 5,0 7,6 21 11 32 18 WZW 1020,1 10 0,0
19.02.2019 09:00:00 6,8 5,0 5,9 16 9 25 14 WZW 1019,7 10 0,0
19.02.2019 08:00:00 6,9 5,3 6,5 18 10 25 14 ZW 1019,0 10 0,0
19.02.2019 07:00:00 6,5 5,2 6,1 15 8 22 12 WZW 1018,2 9 0,0
19.02.2019 06:00:00 6,6 5,3 6,2 18 10 22 12 ZW 1017,9 9 0,0
19.02.2019 05:00:00 6,7 5,4 6,3 15 8 18 10 ZW 1017,6 7 0,0
19.02.2019 04:00:00 7,1 5,4 6,7 8 4 14 8 WZW 1017,4 10 0,0
19.02.2019 03:00:00 7,6 4,1 7,2 11 6 22 12 WZW 1017,2 10 0,0
19.02.2019 02:00:00 7,8 3,3 7,1 15 8 25 14 ZW 1016,9 10 0,0
19.02.2019 01:00:00 6,4 2,0 5,1 18 10 22 12 ZZW 1016,6 10 0,0
19.02.2019 00:00:00 7,5 2,2 6,4 21 11 22 12 ZZW 1016,1 10 0,0
18.02.2019 23:00:00 7,6 2,2 6,3 21 11 22 12 ZZW 1016,3 10 0,0
18.02.2019 22:00:00 8,0 2,0 6,5 21 11 29 16 ZZW 1016,5 10 0,0
18.02.2019 21:00:00 8,1 2,2 6,8 16 9 18 10 ZZW 1016,5 10 0,0
18.02.2019 20:00:00 8,9 1,7 7,4 18 10 22 12 ZZW 1016,3 10 0,0
18.02.2019 19:00:00 10,0 1,5 7,8 16 9 22 12 ZZW 1016,1 10 0,0
18.02.2019 18:00:00 11,9 1,9 10,3 16 9 25 14 Z 1015,8 10 0,0
18.02.2019 17:00:00 14,5 1,0 13,8 16 9 25 14 ZW 1015,5 10 0,0
18.02.2019 16:00:00 15,8 0,9 15,6 15 8 22 12 Z 1015,6 10 0,0
18.02.2019 15:00:00 16,1 1,6 15,9 15 8 25 14 Z 1015,6 10 0,0
18.02.2019 14:00:00 15,8 1,5 16,3 18 10 25 14 ZZW 1016,5 10 0,0
18.02.2019 13:00:00 14,7 1,5 15,9 15 8 22 12 Z 1017,5 10 0,0
18.02.2019 12:00:00 13,3 1,2 14,4 16 9 22 12 ZW 1018,3 10 0,0
18.02.2019 11:00:00 11,0 0,9 12,0 16 9 22 12 ZZW 1018,7 10 0,0
18.02.2019 10:00:00 8,7 0,4 8,6 13 7 18 10 ZZW 1018,9 10 0,0
18.02.2019 09:00:00 6,8 -0,1 6,3 15 8 22 12 ZZW 1019,1 10 0,0
18.02.2019 08:00:00 4,6 -1,0 3,2 13 7 22 12 ZZW 1019,2 10 0,0
18.02.2019 07:00:00 5,1 -0,9 3,5 15 8 22 12 ZZW 1019,2 10 0,0
18.02.2019 06:00:00 5,4 -0,9 4,2 16 9 18 10 ZZW 1019,3 10 0,0
18.02.2019 05:00:00 5,5 -1,1 4,0 13 7 18 10 ZZW 1019,0 10 0,0
18.02.2019 04:00:00 6,0 -1,0 4,6 16 9 18 10 ZZW 1019,2 10 0,0
18.02.2019 03:00:00 7,6 -0,9 5,9 16 9 22 12 ZZW 1019,4 10 0,0
18.02.2019 02:00:00 7,6 -0,6 6,2 21 11 22 12 ZZW 1019,5 10 0,0
18.02.2019 01:00:00 8,3 -0,6 6,4 21 11 22 12 ZZW 1019,7 10 0,0
18.02.2019 00:00:00 8,4 -0,1 7,0 21 11 22 12 ZZW 1019,8 10 0,0
17.02.2019 23:00:00 8,7 0,5 7,4 21 11 25 14 ZZW 1020,1 10 0,0
17.02.2019 22:00:00 9,4 0,3 7,6 18 10 22 12 ZZW 1020,2 10 0,0
17.02.2019 21:00:00 9,0 0,5 7,0 18 10 25 14 ZZW 1020,1 10 0,0
17.02.2019 20:00:00 10,8 -0,3 9,1 18 10 22 12 Z 1020,0 10 0,0
17.02.2019 19:00:00 11,5 -2,5 2,9 8 4 14 8 Z 1019,8 10 0,0
17.02.2019 18:00:00 13,2 -1,3 9,6 15 8 18 10 ZW 1019,3 10 0,0
17.02.2019 17:00:00 15,6 -0,4 14,5 21 11 25 14 ZW 1019,1 10 0,0
17.02.2019 16:00:00 17,6 0,1 17,4 21 11 29 16 ZZW 1019,3 10 0,0
17.02.2019 15:00:00 17,9 0,6 17,4 13 7 22 12 ZZW 1019,5 10 0,0
17.02.2019 14:00:00 17,2 -0,3 17,3 24 13 29 16 ZZW 1019,9 10 0,0
17.02.2019 13:00:00 16,2 2,1 16,8 15 8 29 16 ZZW 1020,5 10 0,0
17.02.2019 12:00:00 15,3 2,7 15,7 16 9 22 12 Z 1021,1 10 0,0
17.02.2019 11:00:00 12,6 2,4 12,8 18 10 22 12 Z 1021,3 10 0,0
17.02.2019 10:00:00 9,8 2,1 9,2 13 7 18 10 Z 1021,8 10 0,0
17.02.2019 09:00:00 6,9 1,7 4,8 9 5 14 8 ZZO 1022,2 10 0,0
17.02.2019 08:00:00 4,4 -0,1 -0,6 9 5 18 10 ZZO 1022,3 10 0,0
17.02.2019 07:00:00 3,9 1,0 -1,4 9 5 7 4 ZZO 1022,5 10 0,0
17.02.2019 06:00:00 5,2 1,0 -0,1 4 2 11 6 ZZW 1022,7 10 0,0
17.02.2019 05:00:00 5,6 1,2 1,7 4 2 11 6 Z 1022,7 10 0,0
17.02.2019 04:00:00 6,6 0,7 2,5 9 5 14 8 Z 1023,3 10 0,0
17.02.2019 03:00:00 5,9 0,6 2,6 9 5 11 6 Z 1023,7 10 0,0
17.02.2019 02:00:00 5,9 0,4 2,4 11 6 14 8 Z 1024,0 10 0,0
17.02.2019 01:00:00 5,6 0,3 1,9 8 4 14 8 Z 1024,6 10 0,0
17.02.2019 00:00:00 6,3 0,7 3,0 9 5 14 8 Z 1025,0 10 0,0
16.02.2019 23:00:00 6,6 0,5 2,3 8 4 14 8 Z 1025,2 10 0,0
16.02.2019 22:00:00 7,6 1,5 1,6 9 5 14 8 Z 1025,2 10 0,0
16.02.2019 21:00:00 6,9 2,3 0,4 8 4 7 4 ZZO 1025,2 10 0,0
16.02.2019 20:00:00 9,1 2,4 2,7 4 2 25 14 Z 1025,4 10 0,0
16.02.2019 19:00:00 8,9 2,9 2,1 5 3 7 4 Z 1025,5 10 0,0
16.02.2019 18:00:00 10,6 2,8 5,0 5 3 7 4 Z 1025,5 10 0,0
16.02.2019 17:00:00 13,4 3,3 12,4 8 4 14 8 WZW 1025,6 10 0,0
16.02.2019 16:00:00 14,7 2,9 15,2 13 7 22 12 WZW 1025,8 10 0,0
16.02.2019 15:00:00 14,5 3,3 15,0 15 8 25 14 WZW 1025,9 10 0,0
16.02.2019 14:00:00 14,3 2,7 14,7 16 9 25 14 ZW 1026,1 10 0,0
16.02.2019 13:00:00 13,8 2,8 14,8 15 8 22 12 WZW 1026,5 10 0,0
16.02.2019 12:00:00 12,2 2,5 13,1 21 11 29 16 ZZW 1026,8 10 0,0
16.02.2019 11:00:00 10,4 1,9 10,6 21 11 22 12 ZZW 1026,7 10 0,0
16.02.2019 10:00:00 7,7 0,7 7,3 21 11 22 12 ZZW 1026,7 10 0,0
16.02.2019 09:00:00 6,1 0,3 5,0 16 9 18 10 ZZW 1026,5 10 0,0
16.02.2019 08:00:00 3,9 -0,7 3,0 21 11 25 14 ZZW 1026,2 10 0,0
16.02.2019 07:00:00 4,6 -0,6 3,2 18 10 22 12 ZZW 1025,8 10 0,0
16.02.2019 06:00:00 4,6 -0,7 3,4 18 10 22 12 ZZW 1025,8 10 0,0
16.02.2019 05:00:00 5,1 -0,6 3,4 13 7 22 12 Z 1026,0 10 0,0
16.02.2019 04:00:00 5,4 -0,2 3,5 15 8 22 12 Z 1026,1 10 0,0
16.02.2019 03:00:00 4,4 -0,5 2,8 9 5 18 10 ZZW 1026,4 10 0,0
16.02.2019 02:00:00 5,3 -0,9 1,7 4 2 14 8 Z 1026,5 10 0,0
16.02.2019 01:00:00 5,8 -0,8 1,5 4 2 11 6 Z 1026,8 10 0,0
16.02.2019 00:00:00 7,7 -0,7 4,2 11 6 14 8 ZZO 1026,6 10 0,0
15.02.2019 23:00:00 8,3 -1,0 3,8 15 8 18 10 Z 1027,0 10 0,0
15.02.2019 22:00:00 8,5 -1,0 4,3 11 6 22 12 Z 1027,4 10 0,0
15.02.2019 21:00:00 8,4 0,5 4,3 11 6 18 10 ZZW 1027,6 10 0,0
15.02.2019 20:00:00 9,6 3,2 2,5 9 5 11 6 Z 1027,8 10 0,0
15.02.2019 19:00:00 10,3 4,5 5,1 9 5 14 8 OZO 1028,1 10 0,0
15.02.2019 18:00:00 10,6 5,1 6,0 9 5 11 6 ONO 1028,1 10 0,0
15.02.2019 17:00:00 14,5 5,0 13,8 8 4 18 10 NO 1028,0 10 0,0
15.02.2019 16:00:00 16,3 4,1 16,4 9 5 11 6 NO 1028,7 10 0,0
15.02.2019 15:00:00 15,9 5,5 16,5 5 3 11 6 NNO 1029,4 10 0,0

tt = temperatuur
td = dauwpunt
tt 5cm = temperatuur 5cm
ff = windsnelheid
fx = windstoten
dd = windrichting
ppp = luchtdruk
vv = zicht
rr = neerslag

Weerstations in de omgeving